User: anonymous   Login
Location: Newark
(45.8378°N, 5.5389°E)
Time: 11:21:28
(UTC+00:00)
Language:

BUGSAT 1 - Orbit

View from above orbital plane
View from above orbital plane
View from above satellite
View from above satellite

Ground track
Ground track

The orbit data is extracted from the following two-line orbital elements,

1 40014U 14033E   19347.03878020  .00000852  00000-0  82168-4 0  9996
2 40014  98.0382 298.7599 0031233 190.4482 169.6092 14.95369643299003
Epoch (UTC): 13 December 2019 00:55:50
Eccentricity: 0.0031233
inclination: 98.0382°
perigee height: 559 km
apogee height: 603 km
right ascension of ascending node: 298.7599°
argument of perigee: 190.4482°
revolutions per day: 14.95369643
mean anomaly at epoch: 169.6092°
orbit number at epoch: 29900

The dashed part of the orbit path shows where the satellite is in the earth's shadow,  

DLR